Tracking 23757 objects as of 26-Oct-2021
HD Live streaming from Space Station
objects crossing your sky now

SL-14 DEB

Track SL-14 DEB now!
10-day predictions


NORAD ID: 45346
Int'l Code: 1991-056CF
Perigee: 1,123.8 km
Apogee: 1,233.4 km
Inclination: 82.6 °
Period: 108.8 minutes
Semi major axis: 7549 km
RCS: Unknown
Launch date: August 15, 1991
Source: Commonwealth of Independent States (former USSR) (CIS)
Launch site: PLESETSK MISSILE AND SPACE COMPLEX (PKMTR)

Note: This is SATELLITE DEBRIS
aabbcc
Your satellite tracking list
Your tracking list is empty




NASA's NSSDC Master Catalog

Two Line Element Set (TLE):
1 45346U 91056CF  21298.33683923  .00001564  00000-0  36155-2 0  9990
2 45346  82.6383 258.2469 0072617 240.3238 119.0645 13.23481462 79348
Source of the keplerian elements: AFSPC